Theta_e
339 347 349 349 350 351 352 352 352 351 350 348 345 343 343 343 343 345 345 345 345 344 341 340 339 337 337 340 341 343 343 343 344 344 343 344 344 344 343 342 344 342 344
340 347 347 348 349 350 351 351 351 350 350 349 347 345 343 342 343 343 345 346 344 344 341 339 339 339 343 343 343 343 343 342 342 342 342 343 342 342 342 341 343 341 341
339 346 349 346 347 349 350 350 350 350 350 349 348 346 344 342 342 340 343 342 343 343 339 341 340 344 342 341 342 343 341 341 341 341 341 339 339 341 341 340 341 340 339
339 345 347 344 346 348 349 349 349 350 350 350 348 346 346 346 342 340 341 340 342 341 339 340 344 342 339 339 341 341 340 340 339 339 339 338 337 340 340 339 338 338 337
340 345 347 343 346 348 349 348 348 349 349 349 348 348 347 343 343 342 341 341 341 340 339 339 342 340 338 338 339 339 339 339 338 338 338 337 337 337 336 335 333 332 332
340 344 344 344 346 347 348 348 348 349 349 348 349 348 345 343 343 341 339 340 341 341 339 339 339 338 338 338 338 339 339 337 337 337 335 335 334 334 333 331 330 329 329
340 344 344 343 344 346 347 348 348 348 348 348 347 347 345 343 342 341 339 340 341 340 338 337 337 338 338 338 340 339 338 336 336 335 334 334 334 334 331 329 329 328 328
338 344 345 339 340 343 345 346 347 347 347 346 346 344 343 342 342 340 337 339 341 340 339 338 336 339 338 339 341 340 336 333 333 334 333 333 334 331 329 328 328 327 326
339 342 344 345 341 336 339 341 343 344 344 344 344 342 340 339 339 337 335 339 340 340 340 340 339 340 338 338 340 336 332 331 334 333 332 332 334 331 328 327 326 325 324
339 341 342 345 345 344 343 334 336 339 340 340 339 337 334 334 334 334 332 336 335 340 340 338 338 338 337 339 338 332 329 328 334 334 333 332 334 330 328 326 325 324 323
314 334 342 343 343 343 341 338 332 333 334 334 334 330 329 335 334 331 328 331 336 338 339 338 338 337 335 335 332 329 327 333 333 333 333 331 333 330 328 326 325 323 322
308 312 317 339 340 340 340 338 341 342 342 341 340 338 335 334 333 329 325 327 331 332 336 338 337 333 330 336 334 328 333 333 332 332 332 332 333 330 328 326 324 323 321
309 312 312 322 339 338 338 338 337 339 343 341 338 337 334 333 331 330 328 329 332 327 334 336 336 333 332 334 333 332 332 332 331 331 329 330 333 331 329 327 325 324 322
309 310 313 316 327 336 336 337 337 336 340 338 337 336 335 330 329 328 327 329 331 334 334 335 333 332 332 332 333 332 332 331 330 329 327 325 331 332 331 330 328 326 324
307 309 311 319 315 331 334 336 337 333 337 335 335 335 333 330 327 327 327 328 331 334 333 333 331 331 330 330 331 331 330 330 329 328 328 319 323 331 333 333 331 329 327
303 306 312 316 319 315 332 334 336 332 333 334 334 333 332 329 327 326 325 327 330 333 332 332 331 329 329 329 329 330 329 329 328 327 326 326 319 322 327 333 333 332 331
302 306 311 313 318 320 321 333 336 331 332 331 332 332 331 329 327 325 325 325 329 332 331 331 330 328 327 327 327 328 328 327 326 325 325 325 324 317 319 325 329 332 333
303 304 308 311 316 324 328 332 331 329 329 328 331 330 329 328 326 325 324 326 328 329 328 328 327 325 325 325 324 325 325 326 325 324 324 323 322 322 320 320 323 326 330
303 304 306 310 318 326 330 330 329 329 327 328 329 329 328 326 325 324 324 326 327 327 327 327 326 325 322 322 323 324 324 324 323 321 320 320 320 320 321 320 316 315 321
302 304 305 310 321 328 325 328 327 326 326 327 326 328 327 327 325 324 324 325 326 326 325 324 324 323 322 322 319 318 319 319 318 319 319 319 319 318 319 319 319 317 313
302 303 309 315 322 327 326 324 322 321 322 323 324 325 326 326 325 324 323 324 325 324 322 323 321 319 318 320 316 315 314 314 314 316 318 319 319 317 317 316 316 317 318
301 302 309 318 323 327 326 326 324 322 322 323 323 324 326 326 325 324 323 323 323 323 322 321 318 314 317 315 313 313 311 313 311 313 315 314 315 316 314 314 314 314 314
301 303 313 322 325 328 326 326 324 324 323 321 321 322 324 324 325 326 324 324 323 323 321 322 322 319 315 311 313 314 307 308 311 310 310 312 312 312 313 312 311 310 311
300 303 312 320 326 327 326 324 322 321 318 320 321 322 323 323 323 323 323 324 324 324 323 322 322 322 320 314 308 308 307 304 304 304 302 303 305 304 305 305 303 305 305
300 302 313 322 326 325 325 325 322 320 321 321 320 320 321 322 323 323 323 323 323 324 324 323 320 319 316 315 309 309 309 309 305 300 305 299 295 296 297 297 297 297 296
300 303 316 321 320 323 322 320 322 321 320 318 318 318 319 320 320 321 322 322 323 320 317 317 316 315 315 313 313 306 302 300 298 297 295 298 296 294 292 293 293 292 291
Wind_Speed
11 19 22 22 22 22 21 20 21 22 22 23 23 22 22 21 19 17 14 14 14 15 18 16 15 15 16 15 14 13 12 10 11 14 13 14 15 15 15 12 12 15 18
11 19 21 24 22 22 22 22 22 22 22 23 23 22 22 20 19 16 15 16 15 16 16 16 16 16 14 13 11 10 14 13 11 11 11 13 14 15 14 13 13 16 17
10 20 22 22 23 22 21 22 22 23 23 22 23 22 21 20 19 18 14 9 8 13 17 14 17 15 14 13 12 14 14 13 11 9 9 11 12 15 15 14 15 15 15
8 17 22 21 23 23 22 22 22 22 23 23 22 22 21 20 18 18 16 12 11 13 13 13 13 15 13 12 12 12 13 12 10 9 7 11 12 15 15 13 14 14 14
10 15 17 20 22 22 21 22 22 22 22 23 22 21 22 21 18 17 17 14 12 13 14 15 13 13 13 12 11 11 12 11 8 8 11 7 10 11 11 11 10 10 7
11 13 15 21 21 22 22 22 22 22 22 22 22 21 22 21 19 18 17 17 14 13 14 14 13 12 11 12 11 12 12 11 10 10 12 9 9 11 10 9 9 9 9
10 13 14 20 21 21 22 23 23 22 22 21 20 21 20 20 19 18 18 16 16 15 15 14 13 12 11 10 13 14 13 9 8 9 9 8 10 13 9 8 9 10 10
10 13 14 16 20 20 21 21 23 23 22 21 20 20 20 19 18 19 19 17 16 15 14 14 14 13 11 10 11 15 12 9 7 9 8 7 12 13 9 9 9 9 9
10 12 11 17 18 18 17 18 20 22 21 21 21 21 20 18 17 16 18 16 17 16 15 14 13 12 12 11 10 12 12 9 8 7 8 7 10 12 10 10 10 9 8
10 13 11 18 20 19 17 15 15 18 18 17 18 17 18 15 13 13 12 14 18 15 15 14 13 12 11 9 11 11 10 6 9 8 7 7 11 12 10 9 9 8 8
10 13 15 14 15 15 16 15 13 13 14 13 13 12 14 11 13 13 12 12 13 14 13 15 14 10 6 7 11 11 10 8 8 7 5 12 11 13 11 10 10 8 7
8 12 16 13 10 10 11 12 15 16 14 16 16 17 12 14 11 10 10 9 10 10 11 14 13 10 8 8 7 9 8 7 7 6 4 11 11 12 13 10 9 8 7
5 5 10 15 12 11 9 10 7 8 9 11 17 15 13 8 8 8 6 6 6 9 9 10 10 9 11 8 8 9 8 8 5 5 4 10 11 13 13 15 12 10 9
8 8 6 12 11 10 8 9 10 9 11 10 13 17 11 6 8 8 6 7 7 8 9 10 8 10 10 10 10 10 9 8 5 4 6 8 10 14 16 17 16 16 14
9 9 9 6 8 9 11 10 11 9 10 13 13 14 11 10 8 8 7 5 9 7 7 8 8 8 9 9 9 10 10 9 8 5 4 8 6 11 14 17 18 18 18
10 9 9 9 8 5 11 12 11 10 11 13 12 14 15 10 9 9 7 7 9 7 7 7 8 7 7 8 10 10 10 9 8 8 5 6 7 7 11 14 18 18 20
12 8 9 10 7 10 8 14 13 10 11 11 12 17 16 13 11 10 8 7 9 7 6 7 7 6 6 6 9 9 8 9 8 8 7 6 6 9 8 12 15 17 20
15 9 9 9 12 13 12 13 11 10 10 10 12 12 17 15 13 10 8 8 9 8 5 7 7 6 6 7 7 7 7 7 8 8 7 6 7 7 8 11 12 14 18
13 12 10 9 11 9 10 4 9 14 11 10 11 12 16 14 13 10 9 10 11 7 6 7 7 7 7 6 6 7 7 7 8 7 9 10 10 8 7 8 9 9 12
12 14 11 8 11 10 7 6 6 8 9 10 9 11 16 13 13 10 9 10 10 9 7 6 9 7 7 7 6 6 6 6 6 8 10 9 10 11 11 11 8 8 8
11 13 13 10 12 8 6 10 7 6 9 5 6 10 15 13 14 11 8 11 10 10 10 9 7 8 7 6 4 5 6 8 10 9 9 10 12 11 11 10 8 7 7
12 12 12 11 9 9 7 8 6 9 6 7 5 5 12 12 14 13 13 11 13 9 12 11 9 3 6 7 5 2 4 7 10 11 9 9 13 9 11 12 11 10 8
14 10 11 11 10 11 9 8 6 6 5 8 10 7 10 12 14 14 14 11 10 9 9 12 11 12 7 6 10 5 3 8 2 4 11 10 11 9 8 9 9 9 9
12 11 9 7 12 11 12 10 11 10 8 7 9 8 9 11 10 10 10 12 12 10 11 10 10 10 9 8 3 8 5 1 3 3 2 4 6 5 5 5 5 7 6
10 9 7 7 10 6 8 9 9 7 6 5 6 10 8 7 8 10 10 11 10 9 11 9 9 9 6 7 6 3 8 8 6 5 8 1 1 2 3 4 5 5 8
8 8 8 5 9 4 7 9 2 7 6 6 10 8 6 5 6 7 8 8 8 7 5 4 3 5 5 3 3 4 2 0 1 1 2 1 1 3 5 5 5 4 6
Wind_Direction
185 170 169 165 166 163 161 159 162 157 155 154 152 150 150 150 152 153 162 155 155 155 150 144 146 147 144 144 152 153 158 148 129 109 108 110 108 102 101 111 111 96 93
180 178 175 166 168 165 162 159 160 158 158 156 154 153 154 155 158 157 164 171 175 171 140 147 154 155 149 128 122 129 124 109 110 118 118 109 107 105 100 83 93 95 89
210 178 176 168 168 166 162 159 162 161 160 161 156 157 158 159 161 155 154 165 156 155 147 152 154 136 128 123 121 117 119 111 106 106 159 128 114 113 107 101 99 99 96
210 179 177 171 171 168 162 159 159 160 161 159 158 158 160 161 162 161 161 160 162 160 154 166 146 136 133 130 126 122 123 118 117 146 130 116 120 110 108 106 101 97 100
195 180 178 169 172 169 163 163 161 161 162 161 165 165 164 159 165 165 160 161 167 170 168 170 149 142 144 142 137 130 128 127 143 183 113 117 113 104 100 95 91 88 71
201 179 162 169 173 170 167 165 165 166 167 167 168 167 162 162 168 165 164 164 167 171 171 164 155 159 156 152 154 141 137 139 184 135 128 118 106 105 111 110 102 107 109
210 179 166 169 171 174 173 169 169 171 171 172 169 160 164 167 168 165 170 167 165 171 175 167 165 166 165 166 164 156 146 161 181 149 145 133 126 123 122 129 124 120 117
224 189 173 173 171 176 178 177 173 174 175 175 167 163 164 171 170 166 174 175 167 171 164 172 174 171 165 176 168 156 146 180 185 157 156 149 127 130 132 127 124 124 123
230 188 194 178 175 172 181 183 180 176 177 175 168 166 163 170 170 176 178 175 172 171 166 171 168 170 172 183 164 143 150 182 178 165 161 131 142 135 139 137 137 133 132
258 208 200 192 186 183 185 183 180 178 176 173 170 166 160 157 168 178 184 179 179 166 172 166 169 166 186 185 157 151 148 180 194 170 175 132 153 141 147 148 147 142 141
352 290 211 206 199 187 185 186 174 177 169 166 159 158 158 164 174 177 187 185 175 167 170 166 161 162 182 179 152 150 157 189 180 188 189 139 161 151 157 160 157 151 148
333 326 329 220 202 190 185 181 187 181 181 179 178 175 178 176 176 177 189 183 181 172 172 158 156 155 181 174 170 158 198 192 190 191 196 165 183 165 164 171 174 164 162
297 294 314 314 207 185 191 176 196 177 181 184 182 181 183 175 161 166 190 192 186 182 188 176 164 185 197 193 180 193 204 196 199 196 176 183 207 184 179 178 179 184 183
282 290 283 264 294 204 193 179 183 181 181 184 183 185 176 172 165 166 179 194 203 191 197 197 188 191 192 204 194 199 202 205 206 199 176 189 225 211 198 195 192 189 192
276 279 274 221 278 262 203 192 177 179 199 184 186 185 178 177 163 162 176 186 213 200 204 189 191 188 194 196 201 206 203 211 213 214 221 166 233 246 232 213 206 206 204
269 266 271 262 246 259 241 191 183 184 190 182 189 187 182 174 162 166 172 184 217 207 202 195 194 194 198 199 200 203 207 208 215 220 225 194 212 253 259 254 232 224 215
279 268 259 258 255 234 261 196 187 184 187 181 188 189 184 177 167 165 170 188 207 205 208 195 199 205 203 202 208 205 210 215 217 220 228 236 213 221 257 264 267 268 247
280 260 265 273 262 249 241 222 181 178 189 182 187 186 180 171 165 168 174 197 202 208 202 196 197 202 211 205 211 213 217 220 221 226 229 236 237 247 221 243 264 271 266
285 280 259 243 252 254 266 229 184 176 177 191 187 190 183 166 165 169 179 200 204 203 195 200 203 210 207 212 218 218 221 223 221 224 230 230 235 242 247 236 245 267 270
281 283 277 253 245 225 208 212 183 177 181 180 176 197 187 180 170 172 184 195 203 203 198 199 208 208 215 214 211 221 224 230 225 223 225 229 232 232 237 243 247 245 242
272 272 282 233 236 229 218 181 157 191 164 163 170 199 193 191 187 185 188 196 204 205 209 195 197 199 207 210 203 227 242 237 238 225 226 231 232 232 239 241 243 249 250
273 275 274 233 234 208 183 158 171 165 156 158 162 172 210 191 198 194 194 200 207 207 209 207 188 178 214 190 199 297 243 219 233 231 230 232 234 229 234 237 241 244 252
278 276 274 226 223 180 179 156 150 153 158 168 186 177 205 201 200 201 200 202 207 210 211 215 211 208 206 206 217 210 200 231 207 189 227 231 235 237 248 254 248 254 259
279 300 282 235 210 178 176 165 175 167 173 184 187 177 188 198 203 200 203 207 208 212 216 211 220 220 221 214 216 247 265 12 225 263 205 227 241 259 274 281 282 272 279
272 284 269 238 178 151 191 181 189 190 210 163 142 167 167 182 200 204 206 212 219 219 228 217 210 218 223 223 210 215 232 246 249 269 265 149 37 56 5 14 9 357 21
264 268 209 116 73 153 86 57 275 182 172 172 178 172 171 168 187 205 201 213 215 208 205 195 205 240 240 251 321 24 20 107 112 189 246 281 340 54 38 33 31 46 50